Tracking 27122 objects as of 25-Mar-2023
HD Live streaming from Space Station
objects crossing your sky now

FREGAT R/B

Track FREGAT R/B now!


NORAD ID: 41106
Int'l Code: 2015-074B
Perigee: 34,271.7 km
Apogee: 35,877.1 km
Inclination: 5.3 °
Period: 1,399.5 minutes
Semi major axis: 41445 km
RCS: Unknown
Launch date: December 11, 2015
Source: Commonwealth of Independent States (former USSR) (CIS)
Launch site: TYURATAM MISSILE AND SPACE COMPLEX (TTMTR)

Note: This is a ROCKET BODY
Your satellite tracking list
Your tracking list is empty




NASA's NSSDC Master Catalog

Two Line Element Set (TLE):
1 41106U 15074B   23083.75025308 -.00000039  00000-0  00000-0 0  9998
2 41106   5.3192  74.8093 0193678 326.3693  32.5747  1.02893627 27365
Source of the keplerian elements: AFSPC